This is the latest recevied weather packets stored in our database for station/object N7IGG. If no packets are shown the sender has not sent any weather packets the latest 10 day(s).
| Time | Temp. | Humidity | Pressure | Rain* | Wind** | Luminosity | Snow |
|---|---|---|---|---|---|---|---|
| 1777825793 | 16.11° C | 77% | 1014.1 hPa | 0 mm | - | 45 W/m² | - |
| 1777825490 | 15.56° C | 77% | 1014.2 hPa | 0 mm | - | 83 W/m² | - |
| 1777825187 | 15.56° C | 76% | 1014.5 hPa | 0 mm | - | 43 W/m² | - |
| 1777824884 | 16.11° C | 74% | 1014.3 hPa | 0 mm | - | 42 W/m² | - |
| 1777824580 | 16.67° C | 74% | 1014.3 hPa | 0 mm | - | 43 W/m² | - |
| 1777824278 | 16.67° C | 75% | 1014.4 hPa | 0 mm | - | 40 W/m² | - |
| 1777823973 | 16.67° C | 77% | 1014.5 hPa | 0 mm | - | 40 W/m² | - |
| 1777823670 | 16.11° C | 79% | 1014.4 hPa | 0 mm | - | 45 W/m² | - |
| 1777823367 | 15.56° C | 80% | 1014.3 hPa | 0 mm | - | 40 W/m² | - |
| 1777823065 | 15° C | 81% | 1014.6 hPa | 0 mm | - | 39 W/m² | - |
| 1777822763 | 14.44° C | 81% | 1014.5 hPa | 0 mm | - | 39 W/m² | - |
| 1777822460 | 15° C | 82% | 1014.4 hPa | 0 mm | - | 44 W/m² | - |
| 1777822158 | 14.44° C | 82% | 1014.4 hPa | 0 mm | - | 73 W/m² | - |
| 1777821854 | 14.44° C | 82% | 1014.5 hPa | 0 mm | - | 39 W/m² | - |
| 1777821552 | 13.89° C | 83% | 1014.3 hPa | 0 mm | - | 81 W/m² | - |
| 1777821250 | 13.89° C | 83% | 1014.4 hPa | 0 mm | - | 37 W/m² | - |
| 1777820946 | 13.89° C | 84% | 1014.4 hPa | 0 mm | - | 48 W/m² | - |
| 1777820643 | 13.89° C | 84% | 1014.3 hPa | 0 mm | - | 29 W/m² | - |
| 1777820339 | 13.33° C | 85% | 1014.2 hPa | 0 mm | - | 27 W/m² | - |
| 1777820037 | 13.33° C | 86% | 1014.4 hPa | 0 mm | - | 26 W/m² | - |
| 1777819733 | 12.78° C | 86% | 1014.6 hPa | 0 mm | - | 26 W/m² | - |
| 1777819432 | 12.78° C | 86% | 1014.3 hPa | 0 mm | - | 24 W/m² | - |
| 1777819129 | 12.78° C | 86% | 1014.4 hPa | 0 mm | - | 24 W/m² | - |
| 1777818825 | 12.78° C | 86% | 1014.4 hPa | 0 mm | - | 23 W/m² | - |
| 1777818522 | 12.78° C | 86% | 1014.4 hPa | 0 mm | - | 23 W/m² | - |
* Rain latest hour (hover to see other rain measurements)
** Current wind speed in m/s (hover to see current wind gust speed)